Simultaneous Nadir Overpasses (SNOs) Predictions

Prediction of SNOs between NOAA-19 and METOP-C Satellite Orbit:

Table of predicted SNOs for the next 14.0 days since TLE Epoch: 6/28/2019
Index Date (NOAA-19) Time (NOAA-19) Lat,Lon (NOAA-19) SZA (NOAA-19 ) Date (METOP-C) Time (METOP-C) Lat,Lon (METOP-C) SZA (METOP-C ) Distance(km) Time Diff (sec)
1 07/01/2019 15:13:43 -79.33, 147.70 123.42 07/01/2019 15:14:43 -79.32, 147.84 123.41 3.11 60
2 07/01/2019 16:04:38 79.31, -44.90 56.58 07/01/2019 16:05:23 79.32, -44.80 56.60 2.18 45
3 07/01/2019 16:55:43 -79.30, 122.43 123.43 07/01/2019 16:56:05 -79.30, 122.40 123.42 0.64 22
4 07/01/2019 17:46:38 79.29, -70.18 56.57 07/01/2019 17:46:45 79.31, -70.25 56.59 2.30 7
5 07/01/2019 18:37:44 -79.31, 96.88 123.42 07/01/2019 18:37:27 -79.29, 96.95 123.44 2.68 17
6 07/01/2019 19:28:39 79.30, -95.73 56.58 07/01/2019 19:28:07 79.29, -95.69 56.57 0.83 32
7 07/01/2019 20:19:44 -79.28, 71.60 123.43 07/01/2019 20:18:49 -79.28, 71.51 123.45 2.12 55
8 07/01/2019 21:10:39 79.27,-121.00 56.57 07/01/2019 21:09:29 79.28,-121.13 56.56 2.86 70
9 07/12/2019 14:45:44 -79.33, 155.11 122.28 07/12/2019 14:46:47 -79.34, 155.01 122.26 2.34 63
10 07/12/2019 15:36:41 79.34, -37.75 57.74 07/12/2019 15:37:28 79.32, -37.83 57.72 3.18 47
11 07/12/2019 16:27:45 -79.34, 129.55 122.26 07/12/2019 16:28:09 -79.33, 129.57 122.26 0.95 24
12 07/12/2019 17:18:41 79.32, -63.02 57.74 07/12/2019 17:18:49 79.34, -63.01 57.76 2.36 8
13 07/12/2019 18:09:45 -79.31, 104.27 122.26 07/12/2019 18:09:31 -79.31, 104.12 122.27 3.12 14
14 07/12/2019 19:00:42 79.32, -88.57 57.75 07/12/2019 19:00:11 79.33, -88.46 57.75 2.46 31
15 07/12/2019 19:51:46 -79.32, 78.72 122.25 07/12/2019 19:50:53 -79.30, 78.68 122.28 2.09 53




NCC Satellite Simultaneous Nadir Overpasses (SNOs) Prediction Service
